星链-31019 (STARLINK-31019 )

导读

STARLINK-31019是美国太空探索技术公司星链互联网卫星星座的一员,于2023年12月8日发射入轨,隶属于SpaceX公司的Starlink项目。该卫星承担全球低延迟、宽带互联网覆盖服务任务,是星链星座大规模组网进程中的组件,依托近地轨道部署,为全球偏远地区、网络基础设施薄弱区域提供高速互联网接入支持。

Basic Information
目录编号:
58540
目录名称:
STARLINK-31019
国际标识:
2023-192K
轨道中心:
EARTH
卫星名称:
星链-31019
卫星全名:
星链-31019 (STARLINK-31019 )
卫星状态:
在轨 (已飞行920 天)
发射日期:
2023-12-08 UTC
国别 :
美国 (US)
星等 :
--
Orbit Information
数据来源 国际轨道数据 AOE轨道数据
星历时间 2026-06-15T02:22:17+0800
11小时前
查看轨道信息
2026-06-15T08:00:00+0800
5小时前
查看轨道信息
半长轴 6840.843km 6840.73km
偏心率 0.0001203 0.0000883
轨道倾角 53.162° 53.161°
近地点辐角 87.806° 74.038°
升交点赤经 330.737° 329.642°
平近点角 272.308° 142.296°
近地点 461.883km 461.988km
远地点 463.529km 463.198km
周期 93.848分钟 93.845分钟
每日圈数 15.343993 15.344373
Detailed Information
固有亮度:
5
最大亮度:
0.3
卫星平台:
Starlink v2.0 mini
覆盖范围:
全球
运营商:
太空探索技术公司
运营商所在国:
美国
制造商(研发单位):
太空探索技术公司
制造商所在国:
美国
使用方式:
暂无
Satellite Introduction
星链(Starlink)计划是由太空探索技术公司(SpaceX)提出的一个巨型低轨卫星互联网星座项目,计划在2019年至2024年间在太空搭建由约1.2万颗卫星组成的“星链”网络,其中1584颗将部署在地球上空550千米处的近地轨道,并从2020年开始工作。该卫星仍在工作。
2D Orbit Map
3D Orbit Map
Orbit Altitude Analysis Chart
Orbit Inclination Analysis Chart
Orbit Comprehensive Analysis Chart
View Comprehensive Chart